QPF
0.00 0.00 0.00 0.00 0.00 0.00 0.00 0.01 0.01 0.01 0.01 0.02 0.04 0.03 0.03 0.03 0.01 0.01 0.00 0.00 0.00 0.00 0.00 0.00 0.00 0.00 0.00 0.00 0.03 0.02 0.01 0.00 0.00 0.00 0.00 0.01 0.02 0.00 0.01 0.01 0.00 0.00 0.00
0.00 0.00 0.00 0.00 0.00 0.00 0.00 0.00 0.00 0.00 0.00 0.01 0.01 0.03 0.05 0.06 0.03 0.01 0.01 0.00 0.00 0.00 0.00 0.00 0.00 0.00 0.00 0.00 0.00 0.01 0.01 0.01 0.01 0.01 0.01 0.01 0.02 0.01 0.01 0.01 0.01 0.00 0.00
0.00 0.00 0.00 0.00 0.00 0.00 0.00 0.00 0.00 0.00 0.00 0.00 0.01 0.00 0.00 0.02 0.03 0.02 0.02 0.02 0.03 0.01 0.00 0.00 0.00 0.00 0.00 0.00 0.00 0.01 0.02 0.02 0.03 0.03 0.02 0.03 0.02 0.01 0.01 0.00 0.00 0.00 0.00
0.00 0.00 0.00 0.00 0.00 0.00 0.00 0.00 0.00 0.00 0.00 0.00 0.01 0.01 0.01 0.01 0.01 0.00 0.01 0.04 0.07 0.06 0.03 0.01 0.00 0.00 0.00 0.00 0.00 0.01 0.04 0.03 0.07 0.09 0.05 0.04 0.02 0.02 0.02 0.02 0.01 0.00 0.00
0.00 0.00 0.00 0.00 0.00 0.00 0.00 0.00 0.00 0.00 0.00 0.00 0.00 0.01 0.01 0.02 0.02 0.03 0.03 0.05 0.08 0.12 0.14 0.09 0.06 0.04 0.02 0.00 0.01 0.02 0.05 0.07 0.08 0.08 0.06 0.06 0.04 0.04 0.03 0.02 0.01 0.01 0.00
0.00 0.00 0.00 0.00 0.00 0.00 0.00 0.00 0.00 0.00 0.00 0.00 0.00 0.00 0.00 0.01 0.02 0.03 0.02 0.02 0.03 0.06 0.11 0.17 0.13 0.11 0.19 0.32 0.32 0.27 0.18 0.15 0.15 0.12 0.08 0.03 0.03 0.04 0.04 0.03 0.02 0.02 0.01
0.00 0.00 0.00 0.00 0.00 0.00 0.00 0.00 0.00 0.00 0.00 0.00 0.00 0.00 0.00 0.00 0.01 0.01 0.01 0.01 0.00 0.01 0.03 0.08 0.11 0.11 0.10 0.20 0.31 0.34 0.31 0.29 0.25 0.19 0.16 0.12 0.11 0.10 0.08 0.05 0.04 0.02 0.01
0.00 0.00 0.00 0.00 0.00 0.00 0.00 0.00 0.00 0.00 0.00 0.00 0.00 0.00 0.00 0.00 0.00 0.00 0.02 0.03 0.02 0.01 0.00 0.02 0.05 0.05 0.07 0.08 0.09 0.15 0.18 0.19 0.20 0.19 0.15 0.09 0.08 0.07 0.04 0.05 0.05 0.03 0.02
0.00 0.00 0.00 0.00 0.00 0.00 0.00 0.00 0.00 0.00 0.00 0.00 0.00 0.01 0.01 0.00 0.00 0.01 0.04 0.08 0.09 0.12 0.08 0.12 0.11 0.09 0.06 0.02 0.03 0.06 0.08 0.09 0.11 0.15 0.13 0.10 0.09 0.09 0.04 0.02 0.04 0.04 0.04
0.00 0.00 0.00 0.00 0.00 0.00 0.00 0.00 0.00 0.00 0.00 0.00 0.00 0.00 0.02 0.03 0.03 0.01 0.01 0.04 0.09 0.21 0.30 0.28 0.21 0.11 0.07 0.06 0.07 0.07 0.11 0.10 0.05 0.04 0.03 0.02 0.04 0.05 0.05 0.06 0.06 0.06 0.05
0.00 0.00 0.00 0.00 0.00 0.00 0.00 0.00 0.00 0.00 0.00 0.00 0.00 0.00 0.02 0.04 0.07 0.07 0.01 0.00 0.02 0.33 0.62 0.62 0.41 0.22 0.16 0.12 0.16 0.16 0.25 0.28 0.16 0.08 0.06 0.07 0.05 0.04 0.03 0.04 0.03 0.02 0.01
0.00 0.00 0.00 0.00 0.00 0.00 0.00 0.00 0.00 0.00 0.00 0.00 0.00 0.00 0.01 0.02 0.04 0.08 0.06 0.03 0.02 0.09 0.26 0.55 0.95 0.62 0.39 0.27 0.17 0.16 0.10 0.09 0.14 0.16 0.16 0.06 0.00 0.00 0.00 0.00 0.00 0.00 0.00
0.00 0.00 0.00 0.00 0.00 0.00 0.00 0.00 0.00 0.00 0.00 0.00 0.00 0.00 0.01 0.02 0.04 0.07 0.08 0.05 0.05 0.08 0.19 0.19 0.23 0.17 0.13 0.08 0.04 0.04 0.04 0.04 0.03 0.02 0.02 0.00 0.00 0.00 0.00 0.01 0.01 0.01 0.01
0.00 0.00 0.00 0.00 0.00 0.00 0.00 0.00 0.00 0.00 0.00 0.00 0.00 0.00 0.01 0.01 0.02 0.03 0.04 0.04 0.05 0.09 0.14 0.06 0.08 0.16 0.22 0.27 0.16 0.15 0.07 0.02 0.00 0.00 0.00 0.00 0.00 0.00 0.00 0.00 0.01 0.01 0.01
0.00 0.00 0.00 0.00 0.00 0.00 0.00 0.00 0.00 0.00 0.00 0.00 0.01 0.01 0.01 0.01 0.01 0.01 0.02 0.03 0.07 0.05 0.06 0.03 0.05 0.07 0.06 0.04 0.05 0.05 0.00 0.00 0.00 0.00 0.00 0.00 0.00 0.00 0.00 0.00 0.00 0.00 0.01
0.00 0.00 0.00 0.00 0.00 0.00 0.00 0.00 0.00 0.00 0.00 0.00 0.00 0.00 0.00 0.00 0.00 0.00 0.01 0.01 0.04 0.09 0.08 0.01 0.03 0.03 0.02 0.00 0.00 0.00 0.00 0.00 0.00 0.00 0.00 0.00 0.00 0.00 0.00 0.00 0.00 0.00 0.00
0.00 0.00 0.00 0.00 0.00 0.00 0.00 0.00 0.00 0.00 0.00 0.00 0.00 0.00 0.00 0.00 0.00 0.00 0.00 0.00 0.01 0.01 0.03 0.02 0.01 0.01 0.00 0.00 0.00 0.00 0.00 0.00 0.00 0.00 0.00 0.00 0.00 0.00 0.00 0.00 0.00 0.00 0.00
0.00 0.00 0.00 0.00 0.00 0.00 0.00 0.00 0.00 0.00 0.00 0.00 0.00 0.00 0.00 0.00 0.00 0.00 0.00 0.00 0.00 0.00 0.00 0.00 0.00 0.00 0.00 0.01 0.00 0.00 0.00 0.00 0.00 0.00 0.00 0.00 0.00 0.00 0.00 0.00 0.00 0.00 0.00
0.00 0.00 0.00 0.00 0.00 0.00 0.00 0.00 0.00 0.00 0.00 0.00 0.00 0.00 0.00 0.00 0.00 0.00 0.00 0.00 0.00 0.00 0.00 0.00 0.00 0.00 0.00 0.00 0.00 0.00 0.00 0.00 0.00 0.00 0.00 0.00 0.00 0.00 0.00 0.00 0.00 0.00 0.00
0.00 0.00 0.00 0.00 0.00 0.00 0.00 0.00 0.00 0.00 0.00 0.00 0.00 0.00 0.00 0.00 0.00 0.00 0.00 0.00 0.00 0.00 0.00 0.00 0.00 0.00 0.00 0.00 0.00 0.00 0.00 0.00 0.00 0.00 0.00 0.00 0.00 0.00 0.00 0.00 0.00 0.00 0.00
0.00 0.00 0.00 0.00 0.00 0.00 0.00 0.00 0.00 0.00 0.00 0.00 0.00 0.00 0.00 0.00 0.00 0.00 0.00 0.00 0.00 0.00 0.00 0.00 0.00 0.00 0.00 0.00 0.00 0.00 0.00 0.00 0.00 0.00 0.00 0.00 0.00 0.00 0.00 0.00 0.00 0.00 0.00
0.00 0.00 0.00 0.00 0.00 0.00 0.00 0.00 0.00 0.00 0.00 0.00 0.00 0.00 0.00 0.00 0.00 0.00 0.00 0.00 0.00 0.00 0.00 0.00 0.00 0.00 0.00 0.00 0.00 0.00 0.00 0.00 0.00 0.00 0.00 0.00 0.00 0.00 0.00 0.00 0.00 0.00 0.00
0.00 0.00 0.00 0.00 0.00 0.00 0.00 0.00 0.00 0.00 0.00 0.00 0.00 0.00 0.00 0.00 0.00 0.00 0.00 0.00 0.00 0.00 0.00 0.00 0.00 0.00 0.00 0.00 0.00 0.00 0.00 0.00 0.00 0.00 0.00 0.00 0.00 0.00 0.00 0.00 0.00 0.00 0.00
0.00 0.00 0.00 0.00 0.00 0.00 0.00 0.00 0.00 0.00 0.00 0.00 0.00 0.00 0.00 0.00 0.00 0.00 0.00 0.00 0.00 0.00 0.00 0.00 0.00 0.00 0.00 0.00 0.00 0.00 0.00 0.00 0.00 0.00 0.00 0.00 0.00 0.00 0.00 0.00 0.00 0.00 0.00
0.00 0.00 0.00 0.00 0.00 0.00 0.00 0.00 0.00 0.00 0.00 0.00 0.00 0.00 0.00 0.00 0.00 0.00 0.00 0.00 0.00 0.00 0.00 0.00 0.00 0.00 0.00 0.00 0.00 0.00 0.00 0.00 0.00 0.00 0.00 0.00 0.00 0.00 0.00 0.00 0.00 0.00 0.00
0.00 0.00 0.00 0.00 0.00 0.00 0.00 0.00 0.00 0.00 0.00 0.00 0.00 0.00 0.00 0.00 0.00 0.00 0.00 0.00 0.00 0.00 0.00 0.00 0.00 0.00 0.00 0.00 0.00 0.00 0.00 0.00 0.00 0.00 0.00 0.00 0.00 0.00 0.00 0.00 0.00 0.00 0.00
MSLP
1015.86 1015.50 1015.29 1015.04 1014.75 1014.48 1014.20 1014.14 1014.08 1013.97 1013.79 1013.61 1013.63 1013.57 1013.46 1013.44 1013.27 1013.17 1013.09 1013.12 1013.20 1013.29 1013.42 1013.65 1013.90 1014.20 1014.49 1014.75 1014.88 1015.17 1015.39 1015.59 1015.76 1015.87 1015.93 1016.04 1016.22 1016.35 1016.35 1016.40 1016.40 1016.40 1016.40
1015.61 1015.42 1015.27 1015.08 1014.89 1014.55 1014.22 1014.03 1013.82 1013.79 1013.66 1013.45 1013.23 1012.91 1012.99 1012.80 1012.67 1012.51 1012.36 1012.40 1012.93 1012.77 1012.83 1013.01 1013.21 1013.48 1013.64 1013.79 1014.03 1014.31 1014.65 1014.95 1015.18 1015.33 1015.41 1015.54 1015.66 1015.78 1015.84 1015.85 1015.91 1015.96 1015.96
1015.50 1015.39 1015.32 1015.17 1014.77 1014.48 1014.24 1013.98 1013.71 1013.53 1013.49 1013.49 1013.32 1013.02 1012.69 1012.41 1012.41 1012.41 1012.23 1011.98 1012.15 1012.52 1012.53 1012.32 1012.52 1012.76 1013.01 1013.18 1013.27 1013.50 1013.89 1014.28 1014.58 1014.76 1014.92 1015.02 1015.09 1015.12 1015.22 1015.30 1015.35 1015.38 1015.37
1015.45 1015.47 1015.48 1015.25 1014.78 1014.44 1014.22 1014.12 1013.91 1013.69 1013.48 1013.40 1013.30 1012.99 1012.71 1012.42 1012.14 1011.92 1011.75 1011.63 1011.83 1011.93 1012.06 1012.14 1012.01 1012.10 1012.23 1012.55 1012.78 1012.92 1013.20 1013.52 1013.82 1014.13 1014.38 1014.46 1014.44 1014.55 1014.71 1014.79 1014.81 1014.84 1014.81
1015.45 1015.49 1015.39 1015.12 1014.73 1014.48 1014.28 1014.05 1013.85 1013.74 1013.66 1013.40 1013.05 1012.75 1012.59 1012.43 1012.22 1011.81 1011.82 1011.62 1011.30 1011.26 1011.38 1011.46 1011.57 1011.54 1011.85 1011.96 1012.06 1012.17 1012.42 1012.94 1013.30 1013.59 1013.92 1014.02 1013.99 1014.07 1014.27 1014.31 1014.26 1014.32 1014.28
1015.45 1015.34 1015.21 1014.95 1014.64 1014.52 1014.25 1014.06 1013.91 1013.67 1013.49 1013.29 1012.97 1012.74 1012.46 1012.26 1012.04 1011.77 1011.43 1011.04 1011.02 1010.85 1010.74 1010.72 1010.73 1010.91 1011.13 1011.51 1011.59 1012.03 1012.06 1012.08 1012.81 1013.32 1013.58 1013.73 1013.61 1013.70 1013.72 1013.87 1013.73 1013.72 1013.85
1015.63 1015.23 1015.05 1014.78 1014.41 1014.35 1014.15 1013.95 1013.76 1013.70 1013.47 1013.04 1012.95 1012.66 1012.37 1012.04 1011.69 1011.43 1011.00 1010.59 1010.33 1010.22 1010.08 1009.98 1010.13 1010.21 1010.49 1010.64 1010.74 1011.21 1011.36 1011.70 1011.85 1012.97 1013.07 1013.20 1013.11 1013.18 1013.25 1013.21 1013.29 1013.03 1013.08
1015.82 1015.26 1014.99 1014.70 1014.43 1014.20 1013.95 1013.80 1013.67 1013.59 1013.34 1013.00 1013.14 1012.86 1012.45 1012.06 1011.33 1010.81 1010.52 1010.24 1009.91 1009.73 1009.56 1009.29 1009.07 1009.30 1009.58 1009.96 1010.17 1010.42 1010.56 1010.91 1011.17 1011.56 1012.23 1012.26 1012.41 1012.44 1012.53 1012.49 1012.84 1012.42 1012.40
1015.80 1015.38 1014.87 1014.49 1014.32 1014.06 1013.85 1013.62 1013.48 1013.46 1013.38 1012.99 1012.93 1013.18 1012.67 1012.19 1011.76 1011.22 1010.58 1010.00 1009.46 1009.19 1009.07 1008.77 1008.64 1008.81 1009.10 1009.31 1009.82 1010.23 1010.61 1010.28 1010.61 1010.91 1011.34 1011.65 1011.59 1011.62 1011.67 1011.62 1011.75 1011.74 1011.56
1015.75 1015.41 1015.03 1014.69 1014.48 1014.04 1013.71 1013.46 1013.19 1013.17 1013.18 1013.14 1012.78 1012.56 1012.69 1012.62 1012.27 1010.98 1010.53 1010.10 1009.55 1009.17 1009.44 1009.23 1009.02 1008.34 1008.38 1008.71 1009.18 1009.59 1010.09 1010.12 1010.72 1010.65 1010.98 1011.03 1011.12 1011.14 1011.13 1010.90 1011.05 1011.08 1010.97
1015.85 1015.39 1015.02 1014.74 1014.54 1014.26 1013.82 1013.41 1013.25 1013.17 1013.06 1013.01 1012.90 1012.59 1012.33 1012.23 1012.22 1011.83 1010.62 1009.96 1009.62 1009.28 1008.86 1008.45 1008.71 1008.10 1007.27 1008.06 1008.45 1009.03 1009.61 1009.97 1010.25 1010.69 1010.59 1010.88 1010.69 1010.71 1010.65 1010.73 1010.94 1010.92 1011.13
1015.84 1015.47 1015.13 1014.85 1014.44 1014.19 1014.01 1013.77 1013.40 1013.18 1013.02 1012.98 1012.90 1012.69 1012.55 1012.49 1012.16 1011.82 1011.29 1010.53 1010.04 1009.27 1008.88 1009.25 1008.86 1007.85 1007.84 1008.57 1008.84 1009.36 1009.64 1010.20 1010.48 1010.51 1010.64 1011.15 1011.62 1011.38 1011.37 1011.09 1011.22 1011.37 1011.54
1015.72 1015.58 1015.24 1014.87 1014.49 1014.19 1013.98 1013.77 1013.44 1013.15 1013.05 1013.03 1012.83 1012.47 1012.34 1012.19 1011.88 1011.52 1011.20 1010.57 1010.17 1009.25 1009.03 1009.67 1009.85 1009.82 1009.86 1009.77 1010.09 1010.08 1010.36 1010.85 1010.84 1010.83 1011.17 1011.65 1012.12 1012.42 1012.19 1011.94 1011.57 1011.72 1011.92
1015.49 1015.38 1015.10 1014.82 1014.40 1014.02 1013.91 1013.64 1013.30 1012.98 1012.86 1012.67 1012.49 1012.31 1012.12 1011.80 1011.44 1011.19 1010.95 1010.72 1010.17 1009.78 1009.34 1009.92 1010.55 1010.77 1010.98 1011.13 1011.35 1011.35 1011.46 1011.74 1011.83 1012.41 1012.62 1012.57 1012.70 1012.69 1012.69 1012.32 1011.94 1011.88 1012.27
1015.14 1015.10 1014.96 1014.76 1014.42 1014.12 1013.78 1013.50 1013.10 1013.05 1012.85 1012.54 1012.42 1012.25 1012.15 1011.92 1011.60 1011.24 1010.79 1010.49 1010.36 1010.21 1010.19 1010.74 1011.06 1011.72 1011.88 1012.07 1012.04 1011.89 1012.21 1012.78 1012.59 1012.96 1012.85 1013.07 1012.92 1012.87 1012.65 1012.39 1012.12 1012.28 1012.37
1014.98 1014.95 1014.81 1014.61 1014.30 1014.02 1013.62 1013.38 1013.26 1013.12 1013.05 1012.74 1012.64 1012.55 1012.44 1012.31 1011.98 1011.66 1011.29 1010.79 1010.55 1010.61 1010.87 1011.24 1012.02 1012.41 1012.55 1012.46 1012.68 1012.76 1012.94 1012.90 1012.92 1012.85 1012.84 1012.98 1012.78 1012.66 1012.69 1012.72 1012.62 1012.53 1012.57
1014.73 1014.75 1014.67 1014.48 1014.15 1013.85 1013.51 1013.44 1013.40 1013.19 1013.20 1013.02 1012.86 1012.77 1012.68 1012.45 1012.29 1012.07 1011.67 1011.36 1011.25 1011.07 1010.85 1011.57 1011.83 1012.51 1012.70 1012.79 1012.91 1012.89 1012.88 1012.97 1013.02 1012.97 1012.91 1012.89 1012.85 1012.88 1012.93 1012.95 1012.95 1012.72 1012.68
1014.44 1014.46 1014.49 1014.33 1014.12 1013.88 1013.64 1013.56 1013.55 1013.38 1013.31 1013.24 1013.13 1012.93 1012.78 1012.45 1012.41 1012.30 1012.16 1012.09 1011.86 1011.65 1011.61 1011.75 1012.45 1012.93 1013.16 1013.28 1013.33 1013.38 1013.38 1013.38 1013.29 1013.11 1013.12 1013.03 1013.05 1013.14 1013.14 1013.20 1013.05 1012.96 1012.88
1014.22 1014.26 1014.33 1014.25 1014.00 1013.89 1013.76 1013.55 1013.38 1013.26 1013.22 1013.32 1013.37 1013.28 1013.09 1012.72 1012.63 1012.43 1012.34 1012.37 1012.15 1012.04 1011.90 1012.08 1012.87 1013.24 1013.53 1013.60 1013.67 1013.60 1013.61 1013.71 1013.47 1013.25 1013.16 1013.09 1013.09 1013.18 1013.08 1012.94 1012.93 1012.92 1012.97
1013.83 1013.89 1013.95 1013.96 1013.91 1013.92 1013.80 1013.57 1013.35 1013.29 1013.38 1013.59 1013.63 1013.57 1013.43 1013.27 1013.04 1012.80 1012.71 1012.72 1012.55 1012.39 1012.38 1012.56 1012.96 1013.40 1013.58 1013.72 1013.79 1014.09 1014.16 1013.87 1013.62 1013.44 1013.36 1013.25 1013.11 1012.98 1012.90 1012.63 1012.57 1012.65 1012.52
1013.44 1013.63 1013.74 1013.78 1013.81 1013.82 1013.71 1013.62 1013.54 1013.47 1013.61 1013.79 1013.85 1013.80 1013.68 1013.55 1013.45 1013.29 1013.18 1013.29 1013.18 1013.12 1013.15 1013.33 1013.45 1013.70 1013.97 1014.21 1014.38 1014.44 1014.40 1014.15 1013.97 1013.78 1013.59 1013.32 1013.25 1013.21 1012.88 1012.62 1012.54 1012.48 1012.51
1012.77 1013.00 1013.13 1013.22 1013.31 1013.25 1013.28 1013.45 1013.44 1013.33 1013.19 1013.41 1013.64 1013.70 1013.75 1013.75 1013.66 1013.55 1013.48 1013.48 1013.39 1013.27 1013.43 1013.69 1013.98 1014.29 1014.61 1014.63 1014.56 1014.49 1014.46 1014.50 1014.52 1013.90 1013.94 1013.62 1013.23 1013.17 1012.97 1012.76 1012.60 1012.53 1012.47
1012.40 1012.55 1012.65 1012.71 1012.70 1012.65 1012.73 1012.93 1013.17 1013.21 1013.15 1013.19 1013.30 1013.47 1013.55 1013.57 1013.61 1013.76 1013.66 1013.53 1013.46 1013.51 1013.64 1013.75 1014.20 1014.41 1014.65 1014.76 1014.72 1014.85 1014.86 1014.77 1014.60 1013.97 1014.00 1013.97 1013.54 1013.55 1013.17 1012.96 1012.87 1012.51 1012.63
1011.80 1011.87 1011.99 1012.07 1012.29 1012.29 1012.36 1012.57 1012.86 1012.97 1012.93 1012.98 1013.06 1013.18 1013.36 1013.57 1013.64 1013.66 1013.75 1013.85 1013.82 1013.77 1013.79 1013.92 1014.24 1014.62 1014.59 1014.63 1014.73 1014.88 1014.95 1015.07 1014.77 1014.52 1014.26 1014.57 1014.12 1013.97 1013.34 1013.00 1012.64 1012.56 1012.58
1011.06 1011.21 1011.19 1011.42 1011.62 1011.56 1011.62 1011.88 1012.27 1012.49 1012.49 1012.69 1012.72 1012.83 1012.95 1013.13 1013.35 1013.56 1013.89 1014.06 1014.22 1014.29 1014.09 1013.97 1014.19 1014.37 1014.59 1014.82 1014.82 1014.97 1015.19 1015.17 1015.16 1015.07 1014.86 1014.84 1014.72 1014.26 1013.67 1013.21 1012.74 1012.57 1012.52
1009.89 1010.16 1010.42 1010.58 1010.71 1010.92 1011.04 1011.33 1011.79 1012.11 1012.28 1012.28 1012.32 1012.48 1012.57 1012.91 1013.14 1013.33 1013.43 1013.86 1014.26 1014.38 1014.32 1014.52 1014.41 1014.42 1014.62 1014.77 1014.91 1015.23 1015.46 1015.75 1015.86 1015.56 1015.32 1015.39 1015.20 1015.17 1014.51 1013.41 1013.11 1012.98 1012.86
Thickness
5695 5696 5696 5696 5697 5697 5697 5696 5695 5694 5694 5694 5693 5693 5693 5691 5692 5694 5693 5692 5691 5688 5685 5684 5681 5678 5676 5674 5673 5671 5669 5668 5666 5666 5666 5665 5663 5662 5661 5661 5660 5660 5660
5690 5690 5689 5688 5688 5687 5688 5688 5688 5687 5687 5687 5687 5686 5686 5688 5686 5686 5687 5687 5684 5683 5680 5678 5677 5675 5673 5672 5669 5668 5665 5663 5661 5660 5659 5659 5658 5658 5658 5657 5657 5656 5656
5683 5682 5681 5680 5679 5678 5678 5678 5679 5678 5676 5674 5675 5677 5676 5677 5675 5676 5676 5677 5676 5673 5673 5672 5670 5670 5668 5666 5665 5663 5659 5657 5655 5654 5653 5654 5654 5654 5653 5653 5652 5652 5653
5673 5671 5670 5669 5669 5669 5668 5668 5666 5665 5666 5664 5663 5665 5666 5667 5667 5666 5666 5668 5665 5663 5663 5662 5663 5662 5663 5660 5658 5657 5654 5651 5650 5648 5646 5647 5649 5648 5647 5647 5647 5647 5649
5662 5660 5658 5658 5657 5658 5657 5657 5656 5654 5653 5653 5655 5655 5656 5656 5656 5657 5656 5654 5656 5655 5653 5653 5654 5656 5652 5652 5652 5652 5651 5646 5644 5643 5640 5639 5641 5643 5640 5640 5641 5640 5641
5650 5649 5647 5646 5646 5646 5646 5645 5644 5645 5645 5645 5647 5647 5647 5646 5645 5645 5645 5645 5642 5642 5643 5644 5645 5647 5648 5643 5645 5643 5638 5642 5636 5635 5632 5630 5633 5634 5635 5634 5635 5634 5633
5637 5638 5637 5636 5636 5636 5635 5636 5636 5636 5637 5637 5635 5635 5636 5634 5633 5631 5630 5629 5629 5626 5627 5631 5633 5635 5637 5639 5639 5635 5629 5632 5635 5625 5625 5624 5627 5629 5630 5629 5625 5628 5629
5624 5625 5625 5624 5626 5627 5628 5629 5630 5628 5628 5627 5621 5619 5619 5620 5620 5618 5614 5609 5608 5607 5610 5615 5621 5624 5626 5627 5628 5629 5629 5630 5630 5624 5621 5620 5621 5621 5624 5624 5621 5624 5625
5615 5615 5617 5619 5620 5622 5623 5624 5622 5620 5617 5616 5612 5605 5604 5604 5602 5595 5590 5587 5588 5591 5594 5600 5606 5610 5613 5616 5616 5618 5616 5625 5625 5621 5619 5615 5617 5617 5619 5622 5621 5621 5624
5609 5610 5610 5612 5613 5616 5616 5616 5617 5613 5609 5604 5603 5601 5594 5587 5580 5583 5571 5567 5568 5573 5573 5580 5589 5600 5604 5607 5608 5610 5609 5613 5611 5612 5611 5611 5611 5612 5614 5618 5617 5618 5619
5602 5602 5603 5605 5605 5606 5608 5608 5606 5603 5600 5596 5594 5591 5586 5576 5563 5552 5559 5556 5553 5560 5567 5578 5579 5596 5601 5598 5601 5602 5601 5602 5605 5601 5603 5600 5603 5605 5606 5609 5608 5608 5608
5596 5595 5596 5597 5598 5599 5598 5597 5596 5595 5592 5590 5588 5583 5576 5567 5556 5544 5541 5540 5543 5554 5560 5563 5564 5574 5588 5587 5589 5590 5589 5589 5589 5590 5592 5584 5582 5588 5588 5594 5594 5594 5593
5592 5590 5590 5591 5592 5593 5592 5591 5591 5590 5588 5585 5582 5578 5571 5563 5554 5547 5542 5541 5543 5554 5557 5554 5553 5559 5565 5571 5571 5573 5574 5572 5573 5574 5574 5571 5569 5569 5572 5576 5581 5580 5579
5589 5587 5587 5588 5590 5591 5590 5590 5590 5590 5587 5584 5580 5574 5568 5562 5556 5549 5546 5543 5547 5551 5555 5553 5547 5549 5550 5553 5550 5554 5554 5553 5554 5552 5552 5555 5556 5557 5559 5563 5567 5568 5565
5588 5587 5587 5587 5588 5588 5588 5588 5588 5585 5583 5581 5577 5572 5566 5560 5554 5548 5546 5548 5548 5550 5553 5545 5544 5538 5539 5539 5539 5544 5542 5537 5541 5540 5543 5543 5545 5546 5548 5551 5554 5553 5551
5587 5586 5585 5586 5587 5586 5587 5586 5583 5581 5577 5576 5572 5567 5562 5557 5552 5547 5543 5544 5545 5546 5548 5539 5529 5527 5526 5528 5527 5527 5527 5529 5530 5532 5533 5533 5535 5537 5537 5536 5537 5538 5538
5586 5585 5584 5583 5583 5584 5584 5580 5578 5577 5572 5570 5567 5562 5558 5554 5550 5545 5543 5541 5538 5538 5547 5533 5529 5522 5520 5519 5518 5518 5520 5520 5520 5521 5523 5523 5523 5524 5523 5522 5521 5523 5523
5585 5583 5580 5580 5579 5579 5578 5575 5572 5570 5567 5564 5560 5557 5554 5553 5548 5544 5540 5535 5532 5532 5533 5532 5520 5513 5510 5509 5509 5508 5508 5507 5508 5509 5509 5510 5511 5510 5509 5507 5508 5508 5508
5582 5580 5578 5576 5576 5573 5571 5569 5568 5565 5562 5558 5553 5550 5547 5546 5544 5541 5538 5533 5531 5530 5529 5526 5515 5509 5503 5501 5499 5499 5498 5497 5498 5498 5499 5499 5500 5498 5498 5498 5497 5497 5496
5580 5577 5575 5573 5570 5566 5565 5563 5563 5560 5555 5550 5546 5542 5539 5536 5534 5534 5531 5526 5525 5524 5522 5518 5512 5506 5502 5498 5495 5490 5488 5490 5490 5491 5490 5490 5491 5490 5490 5491 5491 5490 5490
5577 5573 5570 5567 5564 5561 5560 5557 5555 5553 5548 5543 5539 5536 5532 5530 5527 5525 5522 5517 5515 5512 5509 5506 5503 5500 5495 5489 5486 5484 5482 5483 5483 5483 5482 5483 5483 5482 5483 5483 5481 5480 5477
5574 5570 5567 5564 5561 5559 5556 5552 5550 5548 5547 5542 5536 5531 5527 5524 5521 5518 5515 5511 5508 5505 5502 5496 5491 5486 5482 5479 5478 5476 5475 5472 5471 5474 5471 5471 5474 5472 5471 5471 5469 5467 5465
5570 5567 5564 5561 5559 5556 5554 5550 5546 5542 5540 5537 5533 5528 5524 5520 5515 5510 5509 5506 5503 5499 5495 5489 5482 5478 5474 5471 5469 5465 5463 5461 5460 5463 5461 5458 5460 5457 5458 5457 5455 5455 5451
5566 5563 5561 5558 5554 5552 5549 5545 5541 5536 5534 5530 5527 5523 5517 5511 5508 5504 5500 5496 5492 5489 5485 5481 5475 5468 5465 5462 5459 5456 5452 5449 5449 5448 5448 5440 5443 5441 5443 5444 5442 5440 5437
5562 5559 5557 5553 5549 5548 5545 5540 5534 5530 5527 5523 5520 5516 5512 5506 5502 5497 5490 5485 5480 5476 5473 5470 5465 5460 5454 5449 5447 5443 5437 5436 5434 5434 5432 5430 5428 5428 5429 5428 5429 5426 5423
5560 5554 5551 5546 5544 5539 5538 5534 5528 5522 5517 5515 5512 5507 5505 5498 5494 5489 5483 5476 5469 5464 5461 5455 5453 5450 5444 5439 5434 5430 5426 5418 5415 5414 5418 5412 5411 5409 5407 5413 5412 5410 5407